Vertical_Velocity
-5 -4 -3 -3 -2 -1 -2 -2 -3 -4 -3 -2 -1 0 0 0 0 1 1 1 0 0 0 1 1 2 3 3 3 2 3 4 5 6 6 6 5 2 0 -0 -2 -2 -1 4 20 39 53 57 44 30 17 7 2 1 1 0 -0 -0 1 2 2 1 0 -1 -1 -2 -2 -2 -1
-6 -5 -4 -3 -2 -2 -2 -3 -4 -4 -4 -3 -1 -1 -0 -1 -0 -1 -1 -1 -2 -1 -1 -0 1 1 1 0 -0 -0 0 1 2 3 4 4 3 0 -1 -1 1 5 13 27 41 50 51 43 29 15 6 1 1 1 -0 -1 -1 1 2 3 2 1 -0 -1 -2 -2 -1 -0 1
-8 -7 -6 -4 -4 -4 -4 -4 -4 -4 -4 -3 -2 -2 -1 -2 -2 -2 -2 -3 -2 -2 -1 -0 -0 -1 -1 -2 -2 -2 -2 -1 1 2 4 8 5 3 2 4 14 27 37 41 37 31 23 14 5 -0 -3 -3 -2 -2 -2 -1 -0 1 2 3 2 1 0 -1 -2 -1 -0 2 1
-10 -8 -6 -5 -5 -5 -5 -5 -5 -4 -4 -3 -2 -2 -1 -1 -1 -1 -2 -2 -1 -1 -1 -1 -1 -1 -2 -3 -3 -3 -2 0 6 10 11 9 5 7 11 17 38 45 42 31 23 13 3 -4 -5 -5 -4 -2 -2 -2 -1 -1 1 2 2 2 2 2 1 -0 -1 -0 1 2 0
-10 -8 -7 -6 -6 -6 -6 -5 -5 -4 -3 -2 -1 -0 -0 0 0 0 -0 -0 -0 -0 -0 -0 -1 -2 -3 -3 -4 -3 0 7 18 22 20 8 2 6 19 36 50 42 24 11 10 6 0 -5 -4 -3 -2 -2 -2 -2 -1 -0 1 2 2 2 2 1 0 -0 -1 -1 -1 -1 -1
-10 -9 -8 -8 -7 -7 -6 -5 -4 -4 -3 -2 -1 0 1 1 2 2 1 1 1 0 0 0 -1 -1 -3 -4 -4 -1 6 16 23 24 18 5 -1 4 19 41 48 34 15 1 6 7 5 -2 -3 -3 -3 -4 -3 -2 -1 0 1 1 1 1 1 0 -0 -1 -1 -2 -2 -3 -2
-8 -8 -8 -9 -8 -7 -6 -6 -5 -4 -3 -3 -1 -0 1 2 2 3 2 2 2 1 1 1 -0 -2 -3 -5 -4 0 7 14 18 17 13 6 1 6 18 37 45 39 25 10 14 15 12 2 -2 -4 -5 -5 -4 -3 -1 1 1 1 0 0 -0 -0 -0 -1 -1 -1 -1 -1 -0
-6 -6 -7 -7 -7 -7 -7 -6 -5 -4 -4 -3 -2 -1 -0 1 1 2 2 2 1 1 1 0 -1 -3 -5 -8 -6 -2 3 8 11 11 8 5 3 10 25 43 47 45 38 26 25 22 16 5 -0 -3 -5 -5 -4 -2 -0 1 2 2 1 -0 -0 -0 -0 -0 -0 -0 0 0 1
-6 -5 -6 -7 -8 -8 -8 -7 -6 -5 -4 -3 -3 -2 -1 -0 0 1 1 2 1 1 -0 -1 -3 -5 -8 -12 -10 -6 -2 1 2 2 2 0 4 16 33 48 50 47 41 32 29 24 16 7 3 -0 -2 -2 -1 -0 1 2 2 2 1 -0 -0 -0 0 0 1 1 1 1 2
-5 -5 -5 -7 -8 -9 -9 -8 -7 -6 -4 -3 -2 -2 -1 0 2 4 6 8 6 3 -0 -2 -3 -5 -8 -10 -10 -7 -4 -3 -3 -2 -0 2 7 19 32 41 40 35 29 22 24 20 14 6 3 1 -1 -1 0 1 2 2 2 1 0 -0 -0 0 0 0 1 1 1 1 1
-5 -5 -5 -7 -8 -9 -9 -9 -8 -6 -4 -1 0 2 3 4 6 8 11 12 11 6 1 -3 -3 -3 -3 -2 -1 0 1 1 1 2 5 9 12 17 20 21 16 13 11 13 15 13 8 3 1 -0 -1 -0 1 2 2 2 1 0 -0 -0 -0 0 0 -0 0 0 1 1 1
-6 -6 -6 -8 -9 -9 -9 -9 -8 -6 -4 -0 3 6 7 8 7 7 7 6 6 3 -0 -4 -2 -0 2 6 12 14 14 10 9 10 11 12 11 10 8 5 2 3 6 9 7 4 1 -0 -1 -1 -0 1 2 2 2 1 1 -0 -0 -0 -0 -0 -0 -0 -0 0 0 0 0
-6 -6 -7 -8 -9 -9 -9 -8 -8 -6 -5 -3 -0 3 6 8 4 3 2 0 -1 -2 -2 -1 1 5 10 18 27 29 26 19 13 10 8 6 6 5 4 4 6 7 7 5 1 -1 -1 -1 -1 -0 1 2 2 2 1 1 0 -0 -0 -1 -0 -1 -1 -0 -0 0 0 1 0
-5 -6 -7 -8 -8 -8 -8 -8 -8 -7 -5 -4 -4 -3 -1 3 1 1 1 0 -1 -1 2 8 14 18 23 31 35 33 28 19 9 4 2 3 4 4 5 7 9 7 4 -0 -1 -1 -1 -0 1 1 1 1 1 1 1 0 0 -0 -0 -1 -1 -1 -1 -0 -0 1 1 1 0
-5 -6 -6 -7 -7 -7 -8 -8 -7 -6 -5 -3 -4 -6 -8 -5 -3 -1 1 3 3 5 11 21 27 30 30 31 28 25 20 12 5 2 2 4 4 3 4 5 6 3 -0 -1 -1 -0 0 1 2 2 1 1 0 -0 0 0 0 -0 -0 -1 -1 -1 -1 -0 0 1 1 1 1
-5 -5 -5 -6 -6 -6 -7 -7 -7 -6 -5 -3 -4 -6 -9 -10 -6 -3 -0 3 6 11 17 25 32 31 26 18 15 12 9 4 3 2 3 2 2 1 1 2 2 0 -1 -0 0 1 2 2 1 1 1 -0 -0 -0 0 0 -0 -0 -1 -1 -1 -0 -0 0 1 1 1 0 1
-6 -5 -5 -5 -6 -6 -7 -7 -7 -6 -5 -4 -4 -6 -8 -9 -7 -5 -2 2 7 12 17 22 27 24 17 7 6 4 2 -0 -0 -0 -0 -0 -1 -1 -1 -0 -0 -0 0 1 1 2 2 2 1 1 -0 -0 -0 -0 -0 -0 -0 -1 -1 -1 -0 1 1 1 1 1 0 0 1
-6 -6 -5 -5 -5 -6 -7 -7 -7 -6 -5 -5 -5 -6 -8 -8 -7 -5 -2 2 7 12 16 19 24 20 12 4 4 2 1 -2 -2 -2 -2 -1 -1 -1 -1 -0 0 1 1 1 1 1 1 1 0 0 0 -0 -0 -0 -0 -0 -1 -1 -1 0 2 3 3 2 1 0 -0 -0 -0
-6 -6 -5 -5 -6 -6 -7 -7 -7 -7 -6 -5 -5 -6 -7 -8 -7 -5 -2 2 5 8 11 17 23 21 14 6 4 2 1 -1 -1 -1 -1 1 1 0 0 0 1 1 1 0 -0 -0 -0 -0 -0 0 0 0 0 0 -0 -0 -0 0 1 3 4 4 2 1 0 -0 -0 -1 -1
-5 -5 -5 -5 -6 -6 -7 -7 -8 -7 -7 -6 -5 -5 -5 -6 -6 -5 -4 -0 1 2 3 9 15 15 11 3 1 -0 -0 0 1 1 -0 0 0 -0 -0 -0 -0 -0 -1 -1 -1 -1 -1 -1 -0 -0 0 1 1 0 0 0 1 2 3 4 3 2 1 -0 -0 -1 -1 -2 -2
-3 -4 -4 -5 -6 -6 -7 -7 -7 -7 -7 -6 -5 -5 -4 -4 -5 -5 -4 -2 -1 -1 -1 -1 1 2 1 -1 -2 -2 -2 -1 -0 -0 -1 -1 -1 -1 -1 -1 -1 -1 -2 -2 -2 -1 -1 -1 -0 0 1 1 1 1 0 1 1 2 2 2 1 -0 -1 -1 -1 -2 -2 -3 -3
-2 -3 -3 -4 -5 -6 -6 -6 -6 -7 -6 -6 -4 -4 -3 -3 -3 -3 -3 -2 -1 -0 -0 -2 -3 -3 -3 -2 -2 -2 -2 -2 -2 -2 -2 -2 -2 -2 -1 -1 -1 -1 -1 -1 -1 -1 -0 -0 -0 0 1 1 1 0 -0 -0 0 0 0 -0 -1 -2 -2 -2 -2 -2 -3 -3 -2
-1 -2 -3 -4 -4 -5 -5 -5 -5 -5 -5 -4 -4 -3 -2 -2 -2 -2 -2 -1 -0 0 0 -0 -1 -1 -2 -2 -2 -2 -2 -2 -2 -2 -2 -2 -1 -1 -1 -1 -1 -1 -1 -1 -0 -0 0 0 0 0 0 0 -0 -1 -1 -1 -1 -1 -1 -1 -2 -2 -1 -1 -1 -2 -2 -2 -1
-1 -1 -2 -3 -4 -4 -5 -5 -5 -5 -5 -4 -3 -3 -2 -2 -2 -2 -2 -1 -1 -0 -0 -0 -1 -1 -1 -2 -2 -2 -2 -2 -2 -2 -1 -1 -1 -0 -0 -0 -0 -0 -0 -0 0 0 0 0 -0 -0 -0 -1 -1 -2 -2 -2 -1 -1 -1 -1 -1 -1 -1 -1 -1 -1 -1 -0 -0
-1 -1 -2 -3 -3 -4 -5 -5 -5 -6 -5 -5 -4 -4 -3 -3 -3 -2 -2 -1 -1 -1 -1 -1 -1 -1 -1 -2 -2 -2 -2 -2 -2 -2 -1 -1 -0 -0 -0 -0 -0 -0 -0 0 -0 -0 -0 -0 -0 -1 -1 -1 -2 -1 -1 -1 -1 -1 -1 -1 -0 -0 0 1 1 1 1 1 0
-1 -1 -1 -2 -2 -3 -4 -5 -5 -6 -6 -6 -5 -4 -4 -3 -3 -2 -2 -2 -2 -2 -2 -2 -2 -2 -2 -2 -2 -2 -2 -2 -2 -1 -1 -1 -1 -1 -1 -1 -1 -1 -1 -1 -0 -0 -0 -0 -1 -1 -1 -1 -1 -1 -1 -0 -1 -1 -0 -0 -0 0 1 0 0 -0 -0 -1 -1
-1 -1 -1 -1 -1 -2 -2 -3 -3 -4 -4 -4 -4 -4 -4 -3 -2 -2 -2 -2 -2 -2 -2 -2 -2 -2 -2 -2 -2 -2 -2 -2 -2 -2 -2 -2 -2 -2 -2 -1 -1 -1 -1 -1 -0 -0 -0 -0 -0 -0 -0 -0 0 0 -0 -0 -0 0 0 1 1 2 2 1 1 -0 -1 -1 -1
-2 -2 -1 -1 -1 -1 -1 -1 -2 -2 -2 -2 -3 -3 -2 -2 -2 -2 -2 -2 -2 -2 -2 -2 -2 -3 -2 -2 -2 -2 -2 -2 -2 -2 -2 -2 -2 -2 -2 -2 -1 -1 -1 -0 0 1 0 0 -0 -0 -0 -0 -1 -1 -1 -0 1 1 1 1 1 1 1 -0 -1 -1 1 5 6
-2 -2 -2 -2 -1 -1 -1 -1 -1 -1 -1 -1 -1 -1 -2 -2 -2 -2 -2 -2 -2 -2 -2 -2 -3 -3 -3 -3 -3 -3 -3 -3 -3 -3 -3 -3 -2 -2 -2 -2 -2 -1 -1 -0 0 0 0 0 -1 -2 -3 -2 -1 0 2 2 1 0 -0 -1 -1 -1 -1 -1 -2 -2 -1 4 7
-3 -3 -2 -2 -2 -2 -2 -2 -1 -1 -1 -1 -1 -1 -1 -1 -1 -1 -2 -2 -2 -2 -2 -2 -2 -2 -2 -2 -2 -2 -2 -3 -2 -2 -2 -1 -1 -0 -1 -1 -1 -1 -1 -1 -1 -1 -1 -1 -1 -0 3 8 10 9 7 3 1 -0 -1 -1 -0 -0 -0 -1 -1 -1 -1 -1 2
-3 -3 -3 -2 -2 -2 -2 -2 -2 -2 -2 -2 -2 -2 -1 -1 -1 -1 -1 -1 -1 -1 -1 -1 -0 -0 0 1 0 -0 -1 -1 -0 1 2 2 2 1 1 0 -1 -1 -2 -2 -2 -2 -2 -0 0 2 3 4 4 3 1 0 0 0 0 1 1 0 0 -0 -0 -0 -0 -0 1
-3 -3 -3 -2 -2 -2 -2 -1 -1 -2 -2 -2 -2 -2 -2 -1 -1 -1 -1 -1 -0 -0 0 1 2 3 3 3 2 1 0 -0 -0 1 1 2 1 -0 -0 -0 -1 -1 -2 -3 -3 -2 -1 0 1 0 -0 -0 0 0 0 1 1 1 2 1 1 1 1 1 1 1 1 1 2
-2 -2 -2 -2 -2 -2 -2 -1 -1 -1 -1 -1 -1 -1 -1 -1 -1 -1 -1 -1 -0 0 1 2 3 4 4 3 1 1 1 0 -1 -1 -1 -1 -2 -2 -2 -2 -2 -1 -0 1 1 1 1 0 -1 -1 -1 -0 0 1 1 2 2 2 2 2 2 2 2 1 1 1 1 1 3
-2 -2 -2 -2 -3 -3 -3 -2 -2 -1 -0 0 1 1 1 0 -0 -0 -1 -1 -1 -1 -0 0 2 3 3 2 2 2 2 2 3 3 3 2 1 2 2 2 2 4 5 6 4 3 1 -1 -1 -1 -0 1 1 2 3 4 4 4 3 2 2 1 1 1 1 1 1 3 4
-1 -1 -2 -2 -2 -3 -3 -4 -4 -3 -2 -1 1 1 1 1 0 -0 -0 -1 -1 -1 -1 -1 0 1 2 3 3 3 4 6 10 15 17 17 16 15 14 12 10 8 7 5 3 1 0 -0 -0 0 1 1 2 4 6 7 6 4 3 2 1 1 1 1 2 2 3 4 4
-2 -2 -1 -1 -2 -2 -2 -3 -4 -4 -4 -3 -1 -1 -0 -0 -0 -0 -0 -0 -1 -1 -1 -1 -1 -0 1 2 2 2 2 2 5 10 15 18 17 15 12 9 7 6 4 3 2 2 1 1 1 1 2 3 5 6 7 6 5 4 3 2 2 2 2 2 3 3 3 3 2
-3 -2 -2 -2 -2 -1 -2 -2 -2 -3 -3 -3 -2 -2 -1 -1 -1 -1 -0 -0 -0 -0 -1 -1 -1 -1 -1 -0 1 1 1 0 1 2 3 6 6 6 5 4 3 3 2 2 2 2 2 2 2 4 5 6 7 6 6 5 4 4 3 2 2 2 2 2 2 2 2 2 1
-3 -3 -3 -2 -2 -2 -2 -2 -3 -3 -3 -2 -1 -0 0 0 0 0 0 0 0 -0 -1 -0 0 0 -0 -0 0 0 0 -0 -0 -0 -0 -0 1 1 1 1 1 0 0 1 2 3 4 5 6 6 7 6 6 5 5 4 4 3 3 2 2 2 2 2 2 1 1 0 -0
-2 -3 -3 -3 -3 -3 -2 -2 -2 -3 -2 -1 -0 0 1 0 1 1 1 1 0 -0 0 2 4 4 2 0 -1 -1 -1 -0 -0 -0 -0 -1 -1 -1 -0 -0 -0 -0 1 2 4 5 6 6 6 6 5 5 4 4 4 4 3 3 2 2 2 2 1 1 1 0 -0 -0 -0
-1 -3 -4 -4 -4 -3 -3 -2 -1 -1 -0 1 2 3 3 2 1 2 3 3 2 0 0 1 3 3 2 0 -1 -2 -2 -1 -1 -1 -1 -1 -1 -1 -0 1 1 2 3 4 5 6 6 6 5 4 4 3 3 3 3 3 3 2 2 2 1 1 0 -0 -1 -1 -1 -0 -0
0 -1 -2 -3 -4 -3 -2 -1 1 1 2 3 4 4 5 4 4 4 5 5 4 2 1 0 1 0 -0 -2 -2 -2 -2 -2 -1 -1 -1 -1 0 1 2 3 4 4 4 5 5 5 4 4 4 3 3 2 2 2 2 2 2 2 1 1 0 -0 -1 -1 -1 -1 -1 -0 1
Height
5602 5598 5594 5590 5587 5584 5581 5578 5575 5572 5570 5569 5567 5566 5565 5564 5564 5563 5563 5562 5562 5562 5563 5563 5564 5565 5566 5568 5570 5573 5577 5581 5586 5591 5597 5602 5608 5614 5621 5626 5629 5632 5634 5637 5641 5645 5649 5651 5650 5649 5649 5650 5653 5656 5659 5661 5664 5666 5668 5670 5672 5674 5675 5677 5678 5680 5681 5683 5684
5599 5595 5592 5589 5585 5583 5579 5576 5574 5571 5569 5567 5565 5564 5563 5562 5561 5560 5560 5559 5559 5559 5560 5560 5561 5562 5564 5565 5568 5571 5575 5579 5584 5589 5595 5600 5606 5612 5619 5624 5627 5629 5631 5634 5637 5639 5641 5642 5642 5643 5645 5649 5651 5654 5657 5659 5662 5664 5666 5669 5670 5672 5673 5675 5676 5678 5679 5681 5682
5598 5594 5591 5588 5584 5581 5579 5575 5573 5570 5568 5565 5564 5562 5561 5559 5559 5558 5557 5557 5557 5557 5558 5558 5559 5560 5562 5564 5566 5569 5574 5579 5584 5589 5593 5598 5604 5609 5616 5623 5626 5628 5629 5630 5630 5631 5633 5634 5637 5640 5643 5646 5649 5652 5655 5658 5660 5663 5665 5666 5668 5670 5671 5673 5675 5676 5678 5679 5680
5598 5594 5591 5588 5584 5581 5578 5575 5572 5569 5567 5564 5562 5560 5559 5558 5557 5556 5555 5555 5555 5555 5556 5557 5558 5559 5561 5563 5566 5569 5573 5578 5583 5588 5593 5597 5601 5606 5614 5623 5625 5624 5624 5625 5627 5629 5631 5633 5636 5639 5642 5645 5648 5651 5654 5657 5659 5661 5663 5664 5666 5668 5670 5671 5673 5674 5676 5677 5678
5599 5595 5591 5588 5585 5581 5578 5575 5572 5569 5566 5564 5561 5559 5558 5557 5556 5555 5554 5554 5554 5555 5555 5556 5558 5559 5561 5563 5566 5569 5573 5577 5582 5588 5592 5596 5599 5604 5611 5621 5623 5622 5621 5624 5628 5630 5632 5634 5636 5639 5641 5644 5647 5650 5653 5655 5657 5659 5660 5662 5664 5666 5668 5669 5672 5674 5674 5675 5676
5600 5596 5593 5589 5586 5582 5579 5575 5572 5569 5567 5564 5562 5560 5559 5558 5557 5556 5555 5555 5555 5556 5556 5557 5559 5560 5562 5564 5567 5570 5573 5577 5582 5587 5592 5595 5599 5602 5607 5614 5620 5622 5622 5623 5628 5631 5633 5634 5635 5638 5641 5644 5646 5649 5651 5653 5655 5657 5659 5660 5662 5664 5667 5670 5671 5671 5672 5673 5674
5601 5597 5594 5590 5587 5583 5580 5577 5574 5571 5568 5566 5564 5563 5561 5560 5559 5558 5558 5558 5558 5558 5558 5559 5560 5562 5564 5566 5569 5571 5574 5578 5582 5587 5591 5595 5598 5602 5607 5613 5617 5622 5624 5624 5628 5631 5632 5632 5634 5637 5640 5643 5645 5647 5649 5651 5653 5655 5657 5659 5661 5664 5665 5667 5668 5669 5670 5671 5672
5602 5599 5595 5592 5588 5585 5582 5579 5576 5574 5571 5569 5567 5565 5564 5562 5561 5561 5560 5560 5560 5560 5561 5562 5563 5564 5566 5569 5571 5573 5576 5580 5584 5588 5591 5595 5598 5601 5606 5612 5617 5622 5626 5627 5628 5628 5628 5629 5632 5635 5638 5641 5643 5645 5647 5649 5651 5653 5655 5657 5659 5661 5663 5664 5666 5667 5668 5669 5671
5603 5599 5596 5593 5590 5587 5584 5582 5579 5577 5574 5572 5570 5568 5567 5565 5564 5564 5563 5564 5564 5564 5564 5565 5566 5567 5570 5572 5575 5577 5580 5583 5586 5589 5592 5595 5598 5602 5607 5612 5618 5623 5626 5627 5626 5624 5624 5627 5630 5633 5636 5639 5641 5644 5645 5647 5649 5652 5654 5656 5658 5660 5661 5663 5664 5665 5667 5668 5669
5604 5601 5598 5595 5593 5590 5587 5585 5582 5580 5577 5575 5573 5571 5570 5569 5568 5567 5567 5567 5568 5568 5568 5568 5569 5571 5573 5576 5579 5582 5584 5586 5588 5591 5593 5596 5599 5602 5607 5613 5617 5621 5624 5624 5624 5623 5623 5626 5629 5632 5635 5638 5640 5642 5644 5646 5648 5651 5653 5655 5657 5659 5660 5661 5663 5664 5665 5667 5669
5605 5602 5600 5598 5595 5593 5590 5588 5585 5583 5580 5578 5577 5575 5574 5572 5571 5571 5571 5571 5572 5572 5572 5572 5572 5574 5576 5578 5581 5584 5585 5587 5589 5591 5594 5596 5600 5604 5608 5612 5615 5618 5620 5622 5622 5622 5623 5626 5629 5632 5635 5637 5639 5641 5643 5645 5648 5650 5652 5654 5656 5657 5659 5660 5662 5663 5664 5666 5667
5606 5604 5601 5599 5598 5595 5593 5590 5588 5586 5584 5582 5580 5578 5577 5576 5575 5574 5574 5574 5574 5574 5575 5575 5576 5577 5578 5579 5581 5583 5585 5587 5589 5592 5595 5598 5601 5604 5608 5611 5614 5617 5619 5619 5620 5622 5624 5627 5629 5632 5634 5636 5639 5641 5643 5645 5647 5649 5651 5653 5654 5656 5658 5659 5660 5662 5663 5665 5666
5607 5605 5603 5601 5599 5598 5595 5593 5591 5589 5587 5584 5583 5581 5579 5579 5578 5577 5576 5575 5576 5576 5577 5578 5579 5579 5580 5581 5583 5585 5586 5588 5591 5594 5597 5599 5602 5605 5608 5611 5615 5617 5619 5619 5620 5622 5624 5627 5629 5632 5634 5636 5638 5640 5643 5644 5647 5649 5650 5652 5654 5655 5657 5658 5659 5661 5662 5664 5665
5608 5607 5605 5603 5601 5599 5597 5595 5594 5591 5589 5587 5585 5583 5582 5581 5580 5579 5579 5579 5579 5579 5580 5581 5581 5582 5582 5584 5586 5588 5589 5592 5594 5596 5598 5601 5603 5606 5609 5611 5614 5616 5618 5619 5620 5623 5625 5627 5630 5632 5634 5636 5638 5640 5642 5644 5646 5648 5649 5651 5652 5654 5655 5657 5659 5660 5661 5662 5664
5610 5608 5606 5604 5603 5601 5599 5598 5596 5594 5592 5590 5588 5586 5584 5583 5583 5582 5582 5582 5582 5582 5582 5584 5585 5586 5587 5588 5589 5591 5593 5594 5596 5598 5600 5602 5604 5607 5609 5611 5613 5615 5617 5619 5621 5624 5626 5628 5630 5632 5634 5636 5638 5640 5642 5644 5645 5647 5648 5650 5651 5653 5655 5657 5658 5659 5660 5661 5663
5611 5609 5608 5606 5604 5603 5601 5599 5598 5596 5594 5592 5590 5589 5587 5586 5585 5584 5584 5584 5584 5584 5584 5585 5588 5590 5591 5592 5593 5594 5595 5597 5599 5600 5602 5604 5606 5608 5609 5612 5613 5615 5618 5620 5622 5624 5627 5629 5630 5632 5634 5636 5637 5639 5641 5643 5644 5646 5647 5649 5651 5653 5654 5655 5656 5657 5659 5660 5661
5612 5611 5609 5608 5606 5605 5603 5602 5600 5598 5596 5594 5593 5591 5590 5589 5588 5587 5587 5587 5587 5587 5587 5587 5590 5593 5595 5595 5596 5597 5599 5599 5601 5602 5604 5606 5608 5609 5611 5613 5614 5616 5619 5621 5623 5625 5627 5629 5630 5632 5634 5635 5637 5639 5640 5642 5643 5645 5646 5648 5650 5652 5653 5654 5655 5656 5658 5659 5660
5614 5612 5611 5609 5608 5607 5605 5604 5602 5600 5598 5597 5595 5594 5593 5593 5592 5591 5590 5590 5589 5589 5589 5590 5593 5595 5598 5599 5600 5600 5601 5601 5603 5604 5605 5607 5609 5610 5612 5614 5615 5618 5619 5621 5623 5625 5627 5628 5630 5631 5633 5635 5636 5638 5639 5641 5643 5644 5646 5648 5649 5650 5651 5653 5654 5655 5656 5658 5659
5615 5614 5612 5611 5609 5608 5607 5605 5604 5602 5601 5599 5598 5597 5596 5596 5595 5594 5594 5593 5593 5593 5593 5594 5596 5598 5600 5602 5602 5603 5603 5603 5604 5605 5606 5608 5610 5611 5613 5614 5616 5618 5620 5621 5623 5625 5626 5628 5629 5631 5633 5634 5636 5638 5639 5640 5642 5644 5645 5647 5648 5649 5650 5652 5653 5654 5655 5656 5657
5616 5615 5614 5612 5611 5610 5609 5607 5606 5604 5603 5602 5601 5600 5599 5599 5599 5598 5597 5597 5596 5596 5596 5597 5599 5600 5601 5602 5603 5604 5604 5606 5606 5607 5608 5609 5611 5612 5614 5615 5617 5619 5620 5622 5623 5625 5627 5628 5630 5631 5633 5634 5636 5637 5639 5640 5642 5644 5645 5646 5647 5648 5649 5650 5651 5653 5654 5655 5656
5617 5616 5615 5614 5612 5611 5610 5609 5608 5607 5605 5604 5603 5603 5602 5602 5601 5600 5600 5600 5599 5599 5599 5599 5600 5601 5602 5602 5603 5604 5605 5606 5607 5609 5610 5611 5612 5614 5615 5616 5618 5619 5621 5623 5624 5626 5627 5629 5630 5632 5633 5634 5636 5637 5639 5640 5642 5643 5644 5645 5646 5647 5648 5649 5650 5651 5653 5654 5654
5618 5617 5616 5614 5614 5613 5612 5610 5609 5608 5607 5606 5606 5605 5604 5604 5603 5603 5602 5602 5602 5602 5602 5602 5602 5602 5603 5604 5604 5605 5606 5607 5609 5609 5611 5612 5614 5615 5616 5618 5619 5621 5622 5624 5625 5626 5628 5629 5630 5632 5633 5634 5636 5637 5639 5640 5642 5642 5643 5644 5645 5646 5647 5648 5649 5650 5651 5652 5653
5619 5618 5617 5615 5614 5614 5613 5612 5611 5610 5609 5608 5607 5607 5606 5605 5605 5604 5604 5604 5604 5604 5604 5604 5604 5604 5605 5605 5606 5607 5608 5609 5610 5611 5612 5614 5615 5616 5618 5619 5620 5622 5623 5624 5626 5627 5628 5629 5631 5632 5633 5634 5636 5637 5639 5639 5640 5641 5642 5643 5644 5645 5646 5647 5648 5649 5650 5651 5652
5620 5619 5618 5617 5616 5615 5614 5613 5612 5611 5610 5609 5609 5608 5608 5607 5607 5607 5606 5606 5606 5606 5606 5606 5607 5607 5607 5608 5608 5609 5610 5611 5612 5613 5614 5615 5616 5618 5619 5620 5621 5623 5624 5625 5626 5627 5629 5630 5631 5632 5633 5634 5635 5637 5638 5638 5639 5640 5641 5642 5643 5644 5645 5646 5647 5648 5649 5650 5651
5621 5620 5619 5618 5617 5616 5616 5615 5614 5613 5612 5611 5611 5610 5609 5609 5609 5609 5608 5608 5608 5608 5608 5609 5609 5609 5609 5609 5610 5611 5612 5613 5614 5614 5615 5616 5618 5619 5620 5621 5622 5623 5624 5625 5627 5628 5629 5630 5631 5632 5633 5634 5635 5636 5637 5637 5638 5639 5640 5641 5642 5643 5644 5645 5646 5647 5648 5649 5650
5622 5621 5620 5619 5619 5618 5617 5616 5615 5615 5614 5613 5613 5612 5611 5611 5611 5610 5610 5610 5610 5610 5610 5610 5610 5611 5611 5611 5612 5613 5613 5614 5615 5616 5617 5618 5619 5619 5621 5622 5623 5624 5625 5626 5627 5628 5629 5630 5631 5631 5632 5633 5634 5635 5636 5637 5637 5638 5639 5640 5641 5642 5643 5644 5645 5646 5647 5648 5649
5623 5622 5621 5620 5620 5619 5618 5618 5617 5616 5615 5615 5614 5614 5613 5613 5612 5612 5612 5612 5612 5612 5612 5612 5612 5613 5613 5613 5614 5614 5615 5615 5616 5617 5618 5619 5619 5620 5622 5623 5624 5624 5625 5626 5628 5629 5629 5630 5630 5631 5632 5633 5634 5634 5635 5636 5636 5637 5638 5639 5640 5641 5642 5643 5644 5645 5646 5646 5647
5624 5623 5622 5622 5621 5620 5619 5619 5618 5617 5617 5616 5616 5615 5615 5614 5614 5614 5614 5614 5614 5614 5614 5614 5614 5614 5614 5615 5615 5615 5616 5616 5617 5618 5619 5619 5620 5621 5622 5623 5624 5625 5626 5627 5628 5628 5629 5629 5630 5631 5631 5632 5633 5633 5634 5634 5635 5636 5637 5638 5638 5639 5640 5641 5642 5644 5644 5645 5645
5625 5624 5624 5623 5622 5621 5620 5620 5619 5619 5618 5618 5617 5617 5616 5616 5616 5616 5616 5615 5615 5615 5615 5615 5615 5615 5616 5616 5616 5617 5617 5617 5618 5618 5619 5620 5621 5622 5623 5624 5624 5625 5626 5627 5628 5628 5629 5629 5630 5630 5631 5631 5632 5633 5634 5634 5634 5635 5635 5636 5636 5637 5638 5639 5640 5641 5642 5643 5644
5626 5625 5624 5624 5623 5622 5622 5621 5621 5620 5620 5619 5619 5619 5618 5618 5618 5618 5617 5617 5617 5617 5617 5617 5616 5617 5617 5617 5617 5617 5618 5618 5619 5619 5619 5620 5621 5622 5623 5624 5624 5625 5626 5627 5628 5628 5629 5629 5629 5630 5631 5632 5632 5632 5633 5633 5633 5633 5634 5634 5635 5635 5636 5637 5638 5639 5640 5641 5642
5628 5627 5626 5625 5624 5624 5623 5622 5622 5621 5621 5621 5620 5620 5620 5619 5619 5619 5619 5619 5618 5618 5618 5618 5618 5618 5618 5618 5618 5618 5618 5619 5619 5619 5620 5622 5623 5623 5624 5624 5624 5625 5626 5627 5627 5628 5628 5629 5630 5630 5630 5630 5630 5630 5630 5631 5631 5632 5632 5633 5633 5634 5634 5635 5637 5638 5638 5639 5640
5629 5628 5627 5626 5625 5624 5624 5624 5623 5623 5622 5622 5622 5621 5621 5621 5621 5620 5620 5620 5619 5619 5619 5619 5619 5619 5619 5619 5619 5619 5619 5619 5620 5620 5621 5622 5623 5624 5624 5624 5625 5625 5625 5626 5626 5627 5628 5629 5629 5629 5629 5628 5629 5629 5629 5629 5630 5630 5630 5631 5631 5632 5633 5634 5634 5635 5636 5637 5638
5629 5629 5628 5627 5626 5626 5625 5625 5624 5624 5623 5623 5623 5622 5622 5622 5622 5622 5621 5621 5621 5621 5621 5620 5621 5621 5620 5620 5620 5620 5620 5620 5621 5621 5621 5622 5623 5623 5624 5624 5624 5625 5625 5626 5626 5627 5628 5629 5629 5628 5627 5627 5628 5628 5628 5628 5629 5629 5629 5629 5630 5630 5631 5632 5633 5634 5635 5636 5637
5630 5629 5629 5628 5628 5627 5626 5626 5625 5625 5624 5624 5624 5624 5624 5623 5623 5622 5622 5622 5622 5622 5621 5621 5621 5621 5621 5621 5621 5621 5621 5621 5621 5621 5622 5622 5623 5624 5624 5625 5625 5626 5626 5627 5627 5628 5628 5628 5627 5627 5626 5626 5626 5626 5627 5627 5627 5628 5628 5628 5629 5629 5630 5631 5632 5633 5634 5636 5637
5630 5629 5629 5629 5628 5628 5627 5627 5626 5626 5626 5625 5625 5625 5624 5624 5623 5623 5623 5623 5622 5622 5622 5622 5622 5622 5622 5622 5622 5622 5621 5621 5622 5622 5623 5623 5624 5624 5625 5626 5626 5627 5627 5627 5627 5626 5626 5625 5625 5625 5625 5625 5625 5625 5626 5626 5627 5627 5627 5628 5628 5629 5630 5631 5632 5633 5634 5635 5637
5630 5630 5629 5629 5629 5628 5628 5628 5628 5627 5627 5626 5625 5625 5624 5624 5624 5624 5623 5623 5623 5622 5622 5622 5622 5622 5622 5622 5622 5622 5622 5622 5622 5623 5624 5624 5624 5624 5624 5624 5624 5625 5625 5625 5624 5624 5624 5624 5624 5624 5624 5624 5624 5625 5625 5626 5626 5626 5627 5627 5628 5629 5630 5631 5632 5633 5634 5635 5636
5630 5630 5629 5629 5629 5628 5628 5628 5628 5628 5627 5626 5626 5625 5625 5624 5624 5624 5624 5623 5623 5623 5622 5622 5622 5622 5622 5622 5622 5622 5622 5622 5622 5622 5623 5623 5623 5623 5623 5623 5623 5623 5623 5623 5623 5623 5623 5623 5624 5624 5624 5624 5625 5625 5625 5626 5626 5626 5627 5627 5628 5629 5630 5631 5632 5633 5634 5635 5636
5629 5629 5629 5629 5628 5628 5628 5627 5627 5627 5627 5626 5626 5626 5625 5625 5624 5624 5624 5623 5623 5623 5622 5622 5622 5622 5622 5622 5622 5622 5622 5622 5622 5622 5622 5622 5622 5622 5622 5623 5623 5623 5623 5623 5623 5623 5623 5623 5623 5624 5624 5624 5624 5625 5625 5626 5626 5627 5627 5628 5629 5629 5630 5631 5632 5633 5634 5635 5636
5629 5629 5628 5627 5627 5627 5627 5627 5626 5626 5626 5626 5626 5625 5625 5624 5624 5624 5623 5623 5623 5622 5622 5622 5621 5621 5621 5621 5621 5621 5621 5621 5621 5621 5622 5622 5622 5622 5622 5622 5622 5622 5622 5622 5622 5622 5622 5622 5623 5623 5623 5624 5624 5625 5625 5626 5626 5627 5628 5629 5629 5630 5631 5631 5632 5633 5634 5635 5636
5629 5628 5627 5627 5626 5626 5626 5626 5626 5626 5625 5625 5624 5624 5624 5624 5623 5623 5622 5622 5622 5621 5621 5620 5620 5619 5619 5619 5619 5620 5620 5620 5620 5621 5621 5621 5621 5622 5622 5622 5621 5621 5621 5621 5621 5621 5621 5622 5622 5622 5623 5623 5624 5624 5625 5626 5627 5628 5628 5629 5629 5630 5631 5632 5632 5633 5634 5635 5636
5629 5628 5627 5627 5626 5626 5625 5625 5625 5625 5625 5624 5623 5623 5622 5622 5622 5622 5622 5621 5621 5620 5619 5619 5619 5618 5618 5618 5618 5619 5619 5619 5619 5620 5620 5620 5620 5621 5621 5620 5620 5620 5620 5620 5620 5620 5620 5621 5621 5621 5622 5623 5623 5624 5625 5626 5627 5628 5628 5629 5629 5630 5631 5632 5633 5633 5634 5635 5636